Terminal Aerodrome Forecast
Issued by NWS Sterling, VA

Current Version | Previous Version | Text Only | Print | Product List | Glossary Off
Versions: 1 2 3 4 5 6 7 8 9 10 11 12 13 14 15 16 17 18 19 20 21 22 23 24 25 26 27 28 29 30 31 32

000
FTUS41 KLWX 311830 AAA
TAFIAD
TAF AMD
KIAD 311830Z 3119/0124 20011KT P6SM SCT045
     FM312000 20009KT P6SM VCTS BKN050CB
     FM010200 19006KT P6SM BKN050
     FM010600 17006KT P6SM BKN060
     FM011600 22006KT P6SM SHRA BKN050=

USA.gov is the U.S. government's official web portal to all federal, state and local government web resources and services.